FLOCK 2K-30

Last updated on Wed Feb 14 2018 16:20:53 GMT+0000 (Coordinated Universal Time)

1 42872U 17042AZ 18044.71918165 .00007015 00000-0 20408-3 0 9992 2 42872 96.9928 307.5789 0010549 187.7824 172.3259 15.35667676 32672

Satellite not in orbit

FLOCK 2K-30